| time (UTC) | temp F | wind direction | speed knots | gust knots | rain 1hr in | rain 24hr in | rain mn in | humidity % | barometer mb |
| 20260505093059 | 58 | 238 | 10.4 | 14.8 | 0.00 | 0.00 | 0.00 | 94 | 1010.4 |
| 20260505091611 | 58 | 222 | 8.7 | 13.0 | 0.00 | 0.00 | 0.00 | 94 | 1010.5 |
| 20260505090059 | 58 | 227 | 10.4 | 13.9 | 0.00 | 0.00 | 0.00 | 94 | 1010.5 |
| 20260505084537 | 57 | 238 | 11.3 | 13.9 | 0.00 | 0.00 | 0.00 | 95 | 1010.4 |
| 20260505083040 | 57 | 222 | 11.3 | 14.8 | 0.00 | 0.00 | 0.00 | 96 | 1010.4 |
| 20260505081533 | 57 | 218 | 10.4 | 13.9 | 0.00 | 0.00 | 0.00 | 96 | 1010.4 |
| 20260505080019 | 57 | 233 | 11.3 | 20.0 | 0.00 | 0.00 | 0.00 | 96 | 1010.3 |
| 20260505074506 | 57 | 226 | 11.3 | 15.6 | 0.00 | 0.00 | 0.00 | 96 | 1010.3 |
| 20260505073006 | 57 | 221 | 13.0 | 16.5 | 0.00 | 0.00 | 0.00 | 96 | 1010.3 |
| 20260505071504 | 57 | 240 | 13.9 | 17.4 | 0.00 | 0.00 | 0.00 | 95 | 1010.3 |
| 20260505070107 | 57 | 236 | 13.0 | 15.6 | 0.00 | 0.00 | 0.00 | 95 | 1010.2 |
| 20260505064552 | 57 | 248 | 12.2 | 17.4 | 0.00 | 0.00 | 0.00 | 96 | 1010.2 |
| 20260505063042 | 56 | 231 | 13.9 | 18.2 | 0.00 | 0.00 | 0.00 | 96 | 1010.3 |
| 20260505061553 | 56 | 229 | 12.2 | 18.2 | 0.00 | 0.00 | 0.00 | 96 | 1010.4 |
| 20260505060017 | 56 | 204 | 15.6 | 24.3 | 0.00 | 0.00 | 0.00 | 95 | 1010.5 |
| 20260505054509 | 56 | 231 | 19.1 | 25.2 | 0.00 | 0.00 | 0.00 | 95 | 1010.5 |
| 20260505053014 | 56 | 221 | 15.6 | 26.1 | 0.00 | 0.00 | 0.00 | 95 | 1010.4 |
| 20260505051508 | 56 | 243 | 15.6 | 23.5 | 0.00 | 0.00 | 0.00 | 94 | 1010.6 |
| 20260505041533 | 56 | 207 | 10.4 | 18.2 | 0.00 | 0.00 | 0.00 | 95 | 1011.0 |
| 20260505040019 | 56 | 262 | 10.4 | 19.1 | 0.00 | 0.00 | 0.00 | 95 | 1011.0 |
| 20260505034509 | 56 | 28 | 10.4 | 17.4 | 0.00 | 0.00 | 0.00 | 95 | 1011.0 |
| 20260505033012 | 57 | 215 | 13.0 | 22.6 | 0.00 | 0.00 | 0.00 | 94 | 1011.1 |
| 20260505031503 | 57 | 229 | 13.0 | 20.9 | 0.00 | 0.00 | 0.00 | 94 | 1011.3 |
| 20260505030105 | 57 | 240 | 12.2 | 22.6 | 0.00 | 0.00 | 0.00 | 93 | 1011.2 |
| 20260505024545 | 57 | 224 | 12.2 | 20.9 | 0.00 | 0.00 | 0.00 | 92 | 1011.3 |
| 20260505023043 | 58 | 203 | 7.8 | 16.5 | 0.00 | 0.00 | 0.00 | 90 | 1011.4 |
| 20260505021541 | 59 | 243 | 15.6 | 23.5 | 0.00 | 0.00 | 0.00 | 87 | 1011.4 |
| 20260505020027 | 59 | 230 | 13.0 | 19.1 | 0.00 | 0.00 | 0.00 | 87 | 1011.5 |
| 20260505014517 | 59 | 280 | 11.3 | 20.9 | 0.00 | 0.00 | 0.00 | 87 | 1011.5 |
| 20260505013015 | 59 | 210 | 12.2 | 19.1 | 0.00 | 0.00 | 0.00 | 86 | 1011.4 |
| 20260505011512 | 59 | 234 | 16.5 | 20.0 | 0.00 | 0.00 | 0.00 | 87 | 1011.2 |
| 20260505010114 | 59 | 182 | 12.2 | 20.0 | 0.00 | 0.00 | 0.00 | 88 | 1011.2 |
| 20260505004552 | 59 | 237 | 14.8 | 20.0 | 0.00 | 0.00 | 0.00 | 89 | 1011.0 |
| 20260505003045 | 58 | 237 | 11.3 | 18.2 | 0.00 | 0.00 | 0.00 | 91 | 1010.8 |
| 20260505001545 | 57 | 215 | 12.2 | 19.1 | 0.00 | 0.00 | 0.00 | 91 | 1010.7 |
| 20260505000049 | 57 | 226 | 8.7 | 17.4 | 0.00 | 0.00 | 0.00 | 92 | 1010.5 |
| 20260504234522 | 57 | 223 | 9.6 | 19.1 | 0.00 | 0.00 | 0.00 | 91 | 1010.5 |
| 20260504233018 | 57 | 248 | 12.2 | 20.0 | 0.00 | 0.00 | 0.00 | 90 | 1010.4 |
| 20260504231514 | 58 | 205 | 13.9 | 23.5 | 0.00 | 0.00 | 0.00 | 89 | 1010.3 |
| 20260504230116 | 58 | 230 | 13.9 | 26.1 | 0.00 | 0.00 | 0.00 | 90 | 1010.2 |
| 20260504224556 | 59 | 210 | 16.5 | 24.3 | 0.00 | 0.00 | 0.00 | 88 | 1010.3 |
| 20260504223054 | 59 | 230 | 18.2 | 25.2 | 0.00 | 0.00 | 0.00 | 87 | 1010.2 |
| 20260504221551 | 59 | 232 | 20.9 | 26.1 | 0.00 | 0.00 | 0.00 | 85 | 1010.1 |
| 20260504220057 | 59 | 228 | 15.6 | 23.5 | 0.00 | 0.00 | 0.00 | 86 | 1010.1 |
| 20260504214534 | 59 | 241 | 20.0 | 26.1 | 0.00 | 0.00 | 0.00 | 86 | 1010.3 |
| 20260504213029 | 59 | 224 | 14.8 | 24.3 | 0.00 | 0.00 | 0.00 | 85 | 1010.3 |
| 20260504211535 | 59 | 265 | 15.6 | 24.3 | 0.00 | 0.00 | 0.00 | 86 | 1010.3 |
| 20260504210005 | 58 | 188 | 19.1 | 26.1 | 0.00 | 0.00 | 0.00 | 87 | 1010.2 |
| 20260504204503 | 58 | 225 | 14.8 | 26.9 | 0.00 | 0.00 | 0.00 | 86 | 1010.2 |
| 20260504203002 | 59 | 239 | 12.2 | 21.7 | 0.00 | 0.00 | 0.00 | 85 | 1010.2 |
| 20260504201603 | 59 | 229 | 13.0 | 23.5 | 0.00 | 0.00 | 0.00 | 84 | 1010.2 |
| 20260504200100 | 59 | 190 | 10.4 | 20.9 | 0.00 | 0.00 | 0.00 | 83 | 1010.2 |
| 20260504194540 | 60 | 242 | 10.4 | 20.0 | 0.00 | 0.00 | 0.00 | 81 | 1010.4 |
| 20260504193043 | 61 | 219 | 11.3 | 20.9 | 0.00 | 0.00 | 0.00 | 79 | 1010.5 |
| 20260504191532 | 61 | 236 | 8.7 | 20.9 | 0.00 | 0.00 | 0.00 | 80 | 1010.7 |
| 20260504190012 | 61 | 128 | 9.6 | 22.6 | 0.00 | 0.00 | 0.00 | 82 | 1011.0 |
| 20260504184507 | 61 | 250 | 10.4 | 17.4 | 0.00 | 0.00 | 0.00 | 80 | 1011.0 |
| 20260504183003 | 60 | 183 | 11.3 | 20.9 | 0.00 | 0.00 | 0.00 | 83 | 1011.2 |
| 20260504181604 | 60 | 241 | 9.6 | 20.0 | 0.00 | 0.00 | 0.00 | 81 | 1011.3 |
| 20260504180141 | 60 | 241 | 10.4 | 19.1 | 0.00 | 0.00 | 0.00 | 80 | 1011.4 |
| 20260504174540 | 61 | 189 | 9.6 | 20.9 | 0.00 | 0.00 | 0.00 | 81 | 1011.6 |
| 20260504173039 | 61 | 231 | 8.7 | 19.1 | 0.00 | 0.00 | 0.00 | 78 | 1011.7 |
| 20260504171536 | 61 | 249 | 10.4 | 20.0 | 0.00 | 0.00 | 0.00 | 79 | 1012.1 |
| 20260504160107 | 61 | 174 | 9.6 | 17.4 | 0.00 | 0.00 | 0.00 | 76 | 1012.7 |
| 20260504140111 | 59 | 219 | 7.8 | 18.2 | 0.00 | 0.00 | 0.00 | 75 | 1013.5 |
| 20260504120121 | 54 | 239 | 13.0 | 17.4 | 0.00 | 0.00 | 0.00 | 79 | 1014.7 |